sat.trackr.live / text

‹ back to catalog

JILIN-1 07

NORAD 43159 · 2018-008E

PAYLOAD ACTIVE UNKNOWN

§ Identity

Operator
Country
PRC
Launch date
2018-01-19
Launch site
JSC
Launch vehicle
Mass (kg)
RCS (m²)

External: N2YO · Heavens-Above · Gunter

§ Orbital elements

Epoch: 2026-05-25T04:54:19.741824Z

Period
93.86 min
Inclination
97.1786°
Eccentricity
0.0009849
Mean motion
15.34281020 rev/d
Perigee alt
456.3 km
Apogee alt
469.8 km
Semi-major
6,841.2 km
B*
2.5848e-4
RAAN
165.7520°
Arg perigee
132.3019°
Mean anomaly
227.9061°
Rev number
46,147

§ Raw data

JILIN-1 071 43159U 18008E   26145.20439516  .00008515  00000+0  25848-3 0  99952 43159  97.1786 165.7520 0009849 132.3019 227.9061 15.34281020461472

JSON: /api/v1/satellites/43159 · /tle

For live sub-satellite position, see the globe view (requires WebGL).

§ Visibility from observer

Set your observer location to see the next 7 days of passes ≥ 10°. The values pass through the URL so the page stays shareable.

No JS? Fill the form by hand. The geolocation button needs JavaScript.

§ Radio — SatNOGS DB

ModeDescriptionDownlinkUplink
BPSK Mode S - Telemetry (128000) 2.215 GHz

1 transmitter · refreshed weekly from db.satnogs.org